Weather in Uyutnoye

Russia / Republic of Crimea     45°11′54″N   33°18′09″E
temp.,
°C
wind,
m/s
gust,
m/s
humid.,
%
clouds,
%
prec.,
mm/h
press.,
hPa
HPBL,
m
4 march, thu
thu400:00+4nw347399 0.0 1028133
03:00+4nw237850 0.0 1027120
06:00+3wsw22790 0.0 1026218
09:00+6sw46660 0.0 1025646
12:00+8sw78600 0.0 1024862
15:00+8sw810650 0.0 1021807
18:00+7sw811750 0.0 1019698
21:00+6ssw9127613 0.0 1019589
5 march, fri
fri500:00+6ssw913810 0.0 1018571
03:00+7ssw912817 0.0 1017549
06:00+7ssw8128313 0.0 1015484
09:00+8ssw9138021 0.0 1014626
12:00+10ssw1013741 0.0 1014601
15:00+10ssw912791 0.0 1013551
18:00+9sw711840 0.0 1012514
21:00+8ssw588923 0.0 1013225
6 march, sat
sat600:00+8ssw589134 0.0 1013184
03:00+8sw588920 0.0 1013165
06:00+6nnw598614 0.0 1014237
09:00+6nnw698556 0.0 1016555
12:00+5n81076100 0.0 1019752
15:00+5n7959100 0.0 10211127
18:00+4n7945100 0.0 10231432
21:00+2n6114771 0.0 1026689
7 march, sun
sun700:000n58550 0.0 1029426
03:00−1n23510 0.0 1029302
06:000nw24460 0.0 1029406
09:00+3nw35446 0.0 1030955
12:00+5w664179 0.0 10281838
15:00+5w674470 0.0 10271635
18:00+4w56480 0.0 10251321
21:00+3wsw57510 0.0 1024465
8 march, mon
mon800:00+3sw68580 0.0 1023449
03:00+3wsw79630 0.0 1021499
06:00+3sw696751 0.0 1020480
09:00+5sw796561 0.1 10191214
12:00+6sw8962100 0.2 10181306
15:00+6sw8963100 0.3 10171256
18:00+6sw796699 0.1 10161117
21:00+5sw796993 0.1 1016658